Tiempo cada hora Dachne

Hoy, 4 Agosto, Miércoles

Tiempo Temperatura Precipitaciones Viento Presión Humedad
00:00 +21°C° 0 mm 3 mps 749 mmHg 82%
01:00 +20°C° 0 mm 3 mps 749 mmHg 79%
02:00 +20°C° 0 mm 3 mps 750 mmHg 77%
03:00 +20°C° 0 mm 3 mps 750 mmHg 78%
04:00 +19°C° 0 mm 2 mps 750 mmHg 79%
05:00 +19°C° 0 mm 2 mps 750 mmHg 80%
06:00 +21°C° 0 mm 2 mps 751 mmHg 73%
07:00 +24°C° 0 mm 2 mps 751 mmHg 66%
08:00 +26°C° 0 mm 3 mps 751 mmHg 59%
09:00 +27°C° 0 mm 3 mps 751 mmHg 52%
10:00 +28°C° 0 mm 3 mps 751 mmHg 46%
11:00 +29°C° 0 mm 3 mps 751 mmHg 40%
12:00 +30°C° 0 mm 3 mps 751 mmHg 38%
13:00 +30°C° 0 mm 3 mps 751 mmHg 37%
14:00 +30°C° 0 mm 3 mps 751 mmHg 35%
15:00 +30°C° 0 mm 3 mps 751 mmHg 36%
16:00 +30°C° 0 mm 3 mps 751 mmHg 38%
17:00 +29°C° 0 mm 3 mps 751 mmHg 39%
18:00 +28°C° 0 mm 3 mps 751 mmHg 42%
19:00 +26°C° 0 mm 3 mps 751 mmHg 46%
20:00 +24°C° 0 mm 3 mps 751 mmHg 49%
21:00 +24°C° 0 mm 2 mps 751 mmHg 50%
22:00 +23°C° 0 mm 2 mps 751 mmHg 51%
23:00 +23°C° 0 mm 2 mps 751 mmHg 52%

Mañana, 5 Agosto, Jueves

Tiempo Temperatura Precipitaciones Viento Presión Humedad
00:00 +21°C° 0 mm 2 mps 751 mmHg 53%
01:00 +21°C° 0 mm 2 mps 751 mmHg 53%
02:00 +21°C° 0 mm 2 mps 751 mmHg 53%
03:00 +21°C° 0 mm 2 mps 751 mmHg 54%
04:00 +20°C° 0 mm 2 mps 751 mmHg 55%
05:00 +20°C° 0 mm 2 mps 751 mmHg 56%
06:00 +23°C° 0 mm 2 mps 751 mmHg 51%
07:00 +26°C° 0 mm 2 mps 751 mmHg 46%
08:00 +28°C° 0 mm 2 mps 751 mmHg 41%
09:00 +29°C° 0 mm 2 mps 751 mmHg 38%
10:00 +30°C° 0 mm 2 mps 751 mmHg 34%
11:00 +31°C° 0 mm 2 mps 751 mmHg 31%
12:00 +32°C° 0 mm 2 mps 750 mmHg 30%
13:00 +32°C° 0 mm 2 mps 750 mmHg 29%
14:00 +33°C° 0 mm 1 mps 750 mmHg 27%
15:00 +33°C° 0 mm 1 mps 749 mmHg 28%
16:00 +32°C° 0 mm 1 mps 749 mmHg 30%
17:00 +32°C° 0 mm 1 mps 749 mmHg 31%
18:00 +30°C° 0 mm 2 mps 749 mmHg 36%
19:00 +28°C° 0 mm 3 mps 749 mmHg 41%
20:00 +26°C° 0 mm 4 mps 748 mmHg 46%
21:00 +25°C° 0 mm 3 mps 748 mmHg 45%
22:00 +25°C° 0 mm 3 mps 748 mmHg 44%
23:00 +24°C° 0 mm 3 mps 748 mmHg 43%

Pasado mañana, 6 Agosto, Viernes

Tiempo Temperatura Precipitaciones Viento Presión Humedad
00:00 +25°C° 0 mm 4 mps 748 mmHg 41%
01:00 +25°C° 0 mm 4 mps 747 mmHg 39%
02:00 +25°C° 0 mm 4 mps 747 mmHg 38%
03:00 +25°C° 0 mm 4 mps 747 mmHg 41%
04:00 +23°C° 0 mm 4 mps 747 mmHg 43%
05:00 +22°C° 0 mm 3 mps 747 mmHg 46%
06:00 +25°C° 0.1 mm 4 mps 747 mmHg 44%
07:00 +27°C° 0.1 mm 4 mps 747 mmHg 43%
08:00 +29°C° 0.1 mm 5 mps 747 mmHg 41%
09:00 +32°C° 0 mm 5 mps 746 mmHg 38%
10:00 +34°C° 0 mm 6 mps 746 mmHg 35%
11:00 +36°C° 0 mm 6 mps 746 mmHg 32%
12:00 +37°C° 0 mm 5 mps 745 mmHg 30%
13:00 +37°C° 0 mm 5 mps 745 mmHg 29%
14:00 +39°C° 0 mm 5 mps 745 mmHg 27%
15:00 +38°C° 0 mm 4 mps 744 mmHg 29%
16:00 +37°C° 0 mm 4 mps 744 mmHg 31%
17:00 +36°C° 0 mm 3 mps 744 mmHg 33%
18:00 +35°C° 0 mm 4 mps 743 mmHg 34%
19:00 +34°C° 0 mm 6 mps 743 mmHg 34%
20:00 +33°C° 0 mm 7 mps 743 mmHg 35%
21:00 +32°C° 0.1 mm 7 mps 743 mmHg 36%
22:00 +30°C° 0.1 mm 7 mps 743 mmHg 37%
23:00 +31°C° 0.1 mm 8 mps 743 mmHg 38%

7 Agosto, Sábado

Tiempo Temperatura Precipitaciones Viento Presión Humedad
00:00 +29°C° 0.6 mm 8 mps 743 mmHg 42%
01:00 +29°C° 0.6 mm 8 mps 743 mmHg 46%
02:00 +28°C° 0.6 mm 9 mps 743 mmHg 49%
03:00 +27°C° 0 mm 8 mps 743 mmHg 48%
04:00 +27°C° 0 mm 7 mps 743 mmHg 47%
05:00 +27°C° 0 mm 7 mps 743 mmHg 46%
06:00 +28°C° 0 mm 7 mps 743 mmHg 44%
07:00 +29°C° 0 mm 7 mps 744 mmHg 42%
08:00 +32°C° 0 mm 8 mps 744 mmHg 39%
09:00 +32°C° 0.2 mm 8 mps 744 mmHg 37%
10:00 +33°C° 0.2 mm 7 mps 744 mmHg 35%
11:00 +34°C° 0.2 mm 7 mps 744 mmHg 34%
12:00 +35°C° 0.3 mm 7 mps 744 mmHg 33%
13:00 +35°C° 0.3 mm 6 mps 744 mmHg 32%
14:00 +36°C° 0.3 mm 5 mps 744 mmHg 32%
15:00 +35°C° 0 mm 5 mps 744 mmHg 34%
16:00 +35°C° 0 mm 4 mps 744 mmHg 37%
17:00 +34°C° 0 mm 3 mps 745 mmHg 39%
18:00 +33°C° 0 mm 3 mps 745 mmHg 40%
19:00 +31°C° 0 mm 3 mps 745 mmHg 41%
20:00 +29°C° 0 mm 3 mps 745 mmHg 42%
21:00 +29°C° 0 mm 3 mps 745 mmHg 41%
22:00 +29°C° 0 mm 4 mps 745 mmHg 39%
23:00 +29°C° 0 mm 4 mps 745 mmHg 38%

8 Agosto, Domingo

Tiempo Temperatura Precipitaciones Viento Presión Humedad
00:00 +28°C° 0 mm 4 mps 745 mmHg 42%
01:00 +28°C° 0 mm 5 mps 746 mmHg 46%
02:00 +27°C° 0 mm 5 mps 746 mmHg 50%
03:00 +26°C° 0 mm 4 mps 746 mmHg 55%
04:00 +25°C° 0 mm 3 mps 746 mmHg 60%
05:00 +24°C° 0 mm 3 mps 746 mmHg 66%
06:00 +26°C° 0 mm 3 mps 746 mmHg 58%
07:00 +28°C° 0 mm 3 mps 747 mmHg 49%
08:00 +30°C° 0 mm 4 mps 747 mmHg 41%
09:00 +33°C° 0 mm 4 mps 747 mmHg 37%
10:00 +34°C° 0 mm 4 mps 747 mmHg 34%
11:00 +36°C° 0 mm 4 mps 747 mmHg 30%
12:00 +36°C° 0 mm 4 mps 747 mmHg 29%
13:00 +36°C° 0 mm 4 mps 747 mmHg 29%
14:00 +37°C° 0 mm 4 mps 747 mmHg 28%
15:00 +36°C° 0 mm 4 mps 747 mmHg 30%
16:00 +36°C° 0 mm 4 mps 747 mmHg 32%
17:00 +35°C° 0 mm 3 mps 747 mmHg 34%
18:00 +33°C° 0 mm 3 mps 748 mmHg 38%
19:00 +30°C° 0 mm 2 mps 748 mmHg 42%
20:00 +28°C° 0 mm 2 mps 748 mmHg 46%
21:00 +28°C° 0 mm 2 mps 748 mmHg 50%
22:00 +27°C° 0 mm 2 mps 748 mmHg 53%
23:00 +26°C° 0 mm 2 mps 749 mmHg 56%

9 Agosto, Lunes

Tiempo Temperatura Precipitaciones Viento Presión Humedad
00:00 +26°C° 0 mm 2 mps 749 mmHg 57%
01:00 +26°C° 0 mm 1 mps 749 mmHg 57%
02:00 +25°C° 0 mm 1 mps 749 mmHg 58%
03:00 +25°C° 0 mm 2 mps 749 mmHg 59%
04:00 +25°C° 0 mm 2 mps 749 mmHg 60%
05:00 +25°C° 0 mm 2 mps 749 mmHg 62%
06:00 +27°C° 0 mm 2 mps 749 mmHg 57%
07:00 +29°C° 0 mm 2 mps 749 mmHg 52%
08:00 +31°C° 0 mm 2 mps 749 mmHg 47%
09:00 +32°C° 0 mm 2 mps 749 mmHg 44%
10:00 +34°C° 0 mm 2 mps 749 mmHg 40%
11:00 +36°C° 0 mm 2 mps 749 mmHg 37%
12:00 +36°C° 0 mm 2 mps 749 mmHg 35%
13:00 +37°C° 0 mm 2 mps 749 mmHg 34%
14:00 +37°C° 0 mm 3 mps 749 mmHg 32%
15:00 +37°C° 0 mm 3 mps 749 mmHg 33%
16:00 +37°C° 0 mm 3 mps 749 mmHg 34%
17:00 +36°C° 0 mm 3 mps 749 mmHg 35%
18:00 +34°C° 0.2 mm 3 mps 749 mmHg 40%
19:00 +31°C° 0.2 mm 3 mps 749 mmHg 45%
20:00 +29°C° 0.2 mm 2 mps 749 mmHg 50%
21:00 +28°C° 0.2 mm 2 mps 749 mmHg 52%
22:00 +27°C° 0.2 mm 1 mps 749 mmHg 55%
23:00 +27°C° 0.2 mm 1 mps 749 mmHg 57%
Mostrar más

Necesitamos Su Consentimiento

Meteoprog y nuestros Proveedores de Servicios pueden almacenar y acceder a sus datos personales como cookies, identificadores de dispositivo u otras tecnologías similares de su dispositivo y procesar dichos datos para personalizar contenido y anuncios, además de ofrecer funciones de redes sociales y analizar el tráfico.

  • Almacenar y/o acceder a información en su dispositivo

    Se puede almacenar o acceder a cookies, identificadores de dispositivo u otra información de su dispositivo para los fines anteriormente indicados.

  • Anuncios y contenido personalizados, medición de anuncios y contenido, percepciones del público, y desarrollo de productos

    Los anuncios y el contenido pueden personalizarse en base a su perfil. Se pueden añadir más datos para personalizar mejor los anuncios y contenidos. Se puede medir el rendimiento de los anuncios y contenidos. Se puede obtener la percepción sobre el público que ha visto los anuncios y contenidos. Dichos datos pueden usarse para desarrollar o mejorar la experiencia del usuario, sistemas y software.

Al hacer clic en ‘Estoy De Acuerdo’ usted permitirá el uso de las cookies, identificadores de dispositivo, balizas web u otras tecnologías similares indicadas. Su configuración puede cambiarse desde el navegador de su dispositivo.

Para ciertos fines, los intereses legítimos pueden ser considerados por encima del consentimiento. Puede leer más sobre ello en nuestra Política de Privacidad y Cookies.